Location: Beekmeers
(50.8953°N, 3.6968°E)
Time: 03:33:56
(UTC+00:00)

Meteor 1-4 Rocket - Pass Details

Date: 23 May 2024
Orbit: 357 x 378 km, 81.2° (Epoch: 21 June)

Event Time Altitude Azimuth Distance (km) Brightness Sun altitude
Rises 23:27:15 0° 81° (E) 2,193 6.0 -18.4°
Enters shadow 00:22:40 -71° 195° (SSW) 12,428 9.7 -17.9°
Maximum altitude 00:59:28 34° 96° (E) 620 3.2 -16.5°
